Overview Statistics Trail Chart Weather Telemetry Raw packets
 

This is the latest recevied weather packets stored in our database for station/object ZL1CTS-13. If no packets are shown the sender has not sent any weather packets the latest 10 day(s).

<< 95 96 97 98 99 100 101 >>
Time Temp. Humidity Pressure Rain* Wind** Luminosity Snow
1788124806 14.44° C 95% 997.1 hPa 0.25 mm - - -
1788124504 14.44° C 96% 997.3 hPa 0.25 mm - - -
1788124205 14.44° C 96% 997.3 hPa 0 mm - - -
1788123904 13.89° C 96% 997.3 hPa 0 mm - - -
1788123605 13.89° C 97% 997.4 hPa 0 mm - - -
1788123304 13.33° C 97% 997.5 hPa 0 mm - - -
1788123006 13.33° C 97% 997.6 hPa 0 mm - - -
1788122704 12.78° C 97% 997.6 hPa 0 mm - - -
1788122406 12.78° C 96% 997.7 hPa 0 mm - - -
1788122104 12.78° C 95% 997.8 hPa 0 mm - - -
1788121806 12.78° C 94% 997.8 hPa 0 mm - - -
1788121504 12.78° C 93% 997.9 hPa 0 mm - - -
1788121205 12.78° C 92% 997.9 hPa 0.25 mm - - -
1788120913 12.78° C 91% 997.8 hPa 0.25 mm - - -
1788120605 12.78° C 90% 997.5 hPa 0.25 mm - - -
1788120304 12.78° C 92% 997.7 hPa 0.25 mm - - -
1788120005 13.33° C 91% 997.5 hPa 0.25 mm - - -
1788119704 13.33° C 92% 997.5 hPa 0.25 mm - - -
1788119405 13.33° C 93% 997.5 hPa 0.25 mm - - -
1788119104 12.78° C 93% 997.4 hPa 0.25 mm - - -
1788118805 12.78° C 93% 997.4 hPa 0.25 mm - - -
1788118519 12.78° C 93% 997.4 hPa 0.25 mm - - -
1788118204 12.78° C 93% 997.3 hPa 0.25 mm - - -
1788117904 12.78° C 93% 997.3 hPa 0.25 mm - - -
1788117604 12.22° C 92% 997.2 hPa 0 mm - - -

* Rain latest hour (hover to see other rain measurements)
** Current wind speed in m/s (hover to see current wind gust speed)